• In Russia
  • List of Countries
  • For 7 days
  • Water Temperature
  • Satellite Maps
  • Weather Map
  • Weather Widgets
  • user-avatar
    Login

    Hourly Weather Jamusukro

    Today, 16 October, Tuesday

    Time Temperature Precipitation Wind Pressure Humidity
    00:00 +24°C° 0.2 mm 0 mps 754 mmHg 96%
    01:00 +24°C° 0.8 mm 0 mps 754 mmHg 96%
    02:00 +24°C° 0.8 mm 0 mps 753 mmHg 96%
    03:00 +24°C° 0.8 mm 0 mps 753 mmHg 96%
    04:00 +24°C° 0 mm 0 mps 753 mmHg 96%
    05:00 +24°C° 0 mm 0 mps 753 mmHg 95%
    06:00 +24°C° 0 mm 0 mps 754 mmHg 95%
    07:00 +25°C° 0 mm 0 mps 754 mmHg 88%
    08:00 +29°C° 0 mm 1 mps 754 mmHg 81%
    09:00 +30°C° 0 mm 1 mps 755 mmHg 75%
    10:00 +31°C° 0 mm 1 mps 754 mmHg 69%
    11:00 +33°C° 0 mm 1 mps 754 mmHg 64%
    12:00 +35°C° 0 mm 2 mps 753 mmHg 58%
    13:00 +34°C° 0.5 mm 2 mps 752 mmHg 61%
    14:00 +34°C° 0.5 mm 2 mps 752 mmHg 64%
    15:00 +34°C° 0.5 mm 2 mps 751 mmHg 67%
    16:00 +31°C° 0.5 mm 2 mps 751 mmHg 74%
    17:00 +29°C° 0.5 mm 2 mps 752 mmHg 80%
    18:00 +28°C° 0.5 mm 2 mps 752 mmHg 87%
    19:00 +27°C° 0.3 mm 1 mps 753 mmHg 89%
    20:00 +27°C° 0.3 mm 1 mps 754 mmHg 91%
    21:00 +26°C° 0.3 mm 1 mps 754 mmHg 93%
    22:00 +26°C° 0 mm 1 mps 754 mmHg 94%
    23:00 +26°C° 0 mm 1 mps 754 mmHg 94%

    Tomorrow, 17 October, Wednesday

    Time Temperature Precipitation Wind Pressure Humidity
    00:00 +26°C° 0 mm 1 mps 753 mmHg 95%
    01:00 +26°C° 0 mm 1 mps 753 mmHg 95%
    02:00 +26°C° 0 mm 1 mps 753 mmHg 96%
    03:00 +26°C° 0 mm 1 mps 752 mmHg 96%
    04:00 +26°C° 0 mm 1 mps 752 mmHg 95%
    05:00 +26°C° 0 mm 1 mps 753 mmHg 95%
    06:00 +26°C° 0 mm 1 mps 753 mmHg 95%
    07:00 +28°C° 0 mm 1 mps 753 mmHg 87%
    08:00 +29°C° 0 mm 2 mps 754 mmHg 80%
    09:00 +31°C° 0 mm 2 mps 754 mmHg 72%
    10:00 +31°C° 0 mm 2 mps 753 mmHg 70%
    11:00 +32°C° 0 mm 2 mps 753 mmHg 67%
    12:00 +34°C° 0 mm 2 mps 752 mmHg 64%
    13:00 +32°C° 0.8 mm 2 mps 752 mmHg 67%
    14:00 +32°C° 0.8 mm 2 mps 751 mmHg 70%
    15:00 +31°C° 0.8 mm 2 mps 751 mmHg 73%
    16:00 +30°C° 0.1 mm 2 mps 751 mmHg 78%
    17:00 +29°C° 0.1 mm 2 mps 752 mmHg 82%
    18:00 +27°C° 0.1 mm 1 mps 752 mmHg 87%
    19:00 +27°C° 0 mm 1 mps 753 mmHg 88%
    20:00 +27°C° 0 mm 1 mps 753 mmHg 90%
    21:00 +26°C° 0 mm 1 mps 754 mmHg 92%
    22:00 +26°C° 0 mm 1 mps 753 mmHg 93%
    23:00 +26°C° 0 mm 1 mps 753 mmHg 94%

    Day after tomorrow, 18 October, Thursday

    Time Temperature Precipitation Wind Pressure Humidity
    00:00 +26°C° 0 mm 1 mps 753 mmHg 94%
    01:00 +26°C° 0 mm 1 mps 752 mmHg 95%
    02:00 +26°C° 0 mm 1 mps 752 mmHg 96%
    03:00 +25°C° 0 mm 1 mps 751 mmHg 96%
    04:00 +26°C° 0 mm 1 mps 752 mmHg 96%
    05:00 +26°C° 0 mm 1 mps 752 mmHg 95%
    06:00 +26°C° 0 mm 1 mps 752 mmHg 95%
    07:00 +28°C° 0.1 mm 1 mps 753 mmHg 88%
    08:00 +29°C° 0.1 mm 1 mps 753 mmHg 80%
    09:00 +31°C° 0.1 mm 2 mps 753 mmHg 73%
    10:00 +31°C° 0.3 mm 2 mps 753 mmHg 71%
    11:00 +32°C° 0.3 mm 2 mps 752 mmHg 68%
    12:00 +32°C° 0.3 mm 2 mps 751 mmHg 66%
    13:00 +32°C° 0.9 mm 2 mps 751 mmHg 69%
    14:00 +31°C° 0.9 mm 2 mps 750 mmHg 73%
    15:00 +31°C° 0.9 mm 2 mps 750 mmHg 76%
    16:00 +30°C° 0 mm 2 mps 750 mmHg 80%
    17:00 +29°C° 0 mm 1 mps 751 mmHg 84%
    18:00 +27°C° 0 mm 1 mps 751 mmHg 88%
    19:00 +27°C° 0 mm 1 mps 752 mmHg 90%
    20:00 +27°C° 0 mm 1 mps 752 mmHg 92%
    21:00 +26°C° 0 mm 1 mps 753 mmHg 94%
    22:00 +26°C° 0 mm 1 mps 753 mmHg 95%
    23:00 +26°C° 0 mm 1 mps 752 mmHg 96%

    19 October, Friday

    Time Temperature Precipitation Wind Pressure Humidity
    00:00 +24°C° 0 mm 0 mps 752 mmHg 97%
    01:00 +24°C° 0 mm 0 mps 752 mmHg 97%
    02:00 +24°C° 0 mm 0 mps 751 mmHg 97%
    03:00 +23°C° 0 mm 0 mps 751 mmHg 97%
    04:00 +24°C° 0 mm 0 mps 751 mmHg 97%
    05:00 +24°C° 0 mm 0 mps 752 mmHg 96%
    06:00 +26°C° 0 mm 1 mps 752 mmHg 95%
    07:00 +28°C° 0 mm 1 mps 752 mmHg 87%
    08:00 +29°C° 0 mm 1 mps 753 mmHg 79%
    09:00 +31°C° 0 mm 1 mps 753 mmHg 70%
    10:00 +32°C° 0 mm 1 mps 753 mmHg 67%
    11:00 +33°C° 0 mm 1 mps 752 mmHg 64%
    12:00 +33°C° 0 mm 1 mps 751 mmHg 60%
    13:00 +33°C° 0.2 mm 1 mps 751 mmHg 61%
    14:00 +34°C° 0.2 mm 2 mps 750 mmHg 62%
    15:00 +34°C° 0.2 mm 2 mps 750 mmHg 63%
    16:00 +31°C° 0.1 mm 2 mps 750 mmHg 71%
    17:00 +30°C° 0.1 mm 1 mps 751 mmHg 79%
    18:00 +28°C° 0.1 mm 1 mps 751 mmHg 87%
    19:00 +27°C° 0 mm 1 mps 751 mmHg 89%
    20:00 +27°C° 0 mm 1 mps 752 mmHg 91%
    21:00 +26°C° 0 mm 1 mps 752 mmHg 94%
    22:00 +26°C° 0 mm 1 mps 752 mmHg 95%
    23:00 +26°C° 0 mm 1 mps 752 mmHg 95%

    20 October, Saturday

    Time Temperature Precipitation Wind Pressure Humidity
    00:00 +26°C° 0 mm 1 mps 751 mmHg 96%
    01:00 +26°C° 0 mm 1 mps 751 mmHg 96%
    02:00 +26°C° 0 mm 1 mps 751 mmHg 97%
    03:00 +25°C° 0 mm 1 mps 751 mmHg 97%
    04:00 +24°C° 0 mm 0 mps 751 mmHg 96%
    05:00 +24°C° 0 mm 0 mps 751 mmHg 96%
    06:00 +24°C° 0 mm 0 mps 752 mmHg 95%
    07:00 +25°C° 0 mm 0 mps 752 mmHg 90%
    08:00 +29°C° 0 mm 1 mps 752 mmHg 84%
    09:00 +30°C° 0 mm 1 mps 753 mmHg 78%
    10:00 +31°C° 0 mm 1 mps 752 mmHg 73%
    11:00 +32°C° 0 mm 1 mps 751 mmHg 67%
    12:00 +33°C° 0 mm 1 mps 750 mmHg 62%
    13:00 +34°C° 0 mm 1 mps 750 mmHg 61%
    14:00 +34°C° 0 mm 1 mps 750 mmHg 61%
    15:00 +34°C° 0 mm 1 mps 749 mmHg 60%
    16:00 +32°C° 0.2 mm 2 mps 749 mmHg 69%
    17:00 +30°C° 0.2 mm 2 mps 750 mmHg 78%
    18:00 +28°C° 0.2 mm 2 mps 750 mmHg 87%
    19:00 +28°C° 0 mm 2 mps 751 mmHg 90%
    20:00 +27°C° 0 mm 1 mps 751 mmHg 92%
    21:00 +27°C° 0 mm 1 mps 751 mmHg 95%
    22:00 +26°C° 0 mm 1 mps 751 mmHg 95%
    23:00 +26°C° 0 mm 1 mps 751 mmHg 96%

    21 October, Sunday

    Time Temperature Precipitation Wind Pressure Humidity
    00:00 +26°C° 0 mm 1 mps 751 mmHg 97%
    01:00 +26°C° 0 mm 1 mps 751 mmHg 96%
    02:00 +26°C° 0 mm 1 mps 750 mmHg 96%
    03:00 +26°C° 0 mm 1 mps 750 mmHg 96%
    04:00 +24°C° 0 mm 0 mps 751 mmHg 95%
    05:00 +24°C° 0 mm 0 mps 751 mmHg 95%
    06:00 +25°C° 0 mm 0 mps 751 mmHg 94%
    07:00 +28°C° 0 mm 1 mps 752 mmHg 89%
    08:00 +29°C° 0 mm 1 mps 752 mmHg 84%
    09:00 +30°C° 0 mm 1 mps 752 mmHg 79%
    10:00 +31°C° 0 mm 1 mps 751 mmHg 73%
    11:00 +32°C° 0 mm 1 mps 751 mmHg 68%
    12:00 +33°C° 0 mm 1 mps 750 mmHg 63%
    13:00 +33°C° 0.1 mm 1 mps 749 mmHg 63%
    14:00 +33°C° 0.1 mm 1 mps 749 mmHg 62%
    15:00 +33°C° 0.1 mm 1 mps 749 mmHg 62%
    16:00 +32°C° 0.1 mm 1 mps 749 mmHg 70%
    17:00 +30°C° 0.1 mm 2 mps 749 mmHg 78%
    18:00 +28°C° 0.1 mm 2 mps 750 mmHg 86%
    19:00 +28°C° 0.1 mm 1 mps 750 mmHg 88%
    20:00 +27°C° 0.1 mm 1 mps 750 mmHg 91%
    21:00 +27°C° 0.1 mm 1 mps 751 mmHg 94%
    22:00 +27°C° 1.1 mm 1 mps 750 mmHg 95%
    23:00 +27°C° 1.1 mm 1 mps 750 mmHg 95%
    Show more